NOAA 16 DEB, 41661

Orbit data source: Space-Track

NOAA 16 DEB, 41661 is space debris in SSO originally from a launch on Thu, 21 Sep 2000 UTC launched from the Air Force Western Test Range (AFWTR). Debris objects in space refer to the collection of defunct objects orbiting the Earth. Examples of debris include non-operational satellites, rocket bodies, and fragments generated from explosions, collisions, or faulty payload assembly.

Loading next visibility...
Identifier
41661, 2000-055PA
Orbit
SSO
Country
Flag of USUS
Related business
Manufacturer
Unknown
Mission
Spacecraft
Bus & Motor
Unknown
Mass
Unknown
Launch date (UTC)
2000-09-21 (25 years ago)
Launch vehicle
Unknown
Launch site
Air Force Western Test Range (AFWTR)
Object type
Payload
Rocket body
Debris
Shape & HBR
Unknown shape, 0.1 m
Radar Cross Section
Small (<0.1 m²)

Expand to show TLE details & history
Last TLE update: 12 hours ago

TLE from 12 hours ago
0 NOAA 16 DEB
1 41661U 00055PA  26037.98663054  .00008359  00000-0  24818-2 0  9997
2 41661  99.0398 230.7486 0020432 266.5101  93.3750 14.43393776508939
Epoch: 2026-02-06T23:40Z
TLE epoch observation values (Epoch: 2026-02-06T23:40:44.878Z)
Latitude
-0.00006°
Longitude
98.44498°
Altitude
751.13 km
Speed
7.479 km/s
True Right ascension
15h 22m 59s
True Declination
0° 00' 00"
Sunlit
Object was in daylight at epoch
Visualization orbit readout
Latitude
Unknown
Longitude
Unknown
Altitude
Unknown
Speed
Unknown
Apparent Right ascension
Unknown
Apparent Declination
Unknown
Sunlit
N/A
Visualization observer readout
Local Sidereal Time
14:04:51
Azimuth
Unknown
Elevation
Unknown
Doppler factor
Unknown
Orbital elements
Apogee altitude
759.004 km
Perigee altitude
729.898 km
Semi-major axis
7,122.588 km
Eccentricity
0.00204
Inclination
99.0398°
RAAN
230.7486°
Arg. of periapsis
266.5101°
True anomaly
93.60869°
Mean anomaly
93.375°
Eccentric anomaly
93.49185°
Mean motion
3.61066 °/min
Orbital period
99.7 mins
BSTAR
0.0024818
Loading maneuver chart data...
Computing Atmospheric mass density...
Loading historical data...
Loading historical data...
Loading historical data...
Loading historical data...
Loading historical data...
Loading historical data...
Loading historical data...

Documentation

Showing up to 5 results
|